Weather Roundup
Issued by NWS

Home | Current Version | Previous Version | Graphics & Text | Print | Product List | Glossary Off
Versions: 1 2 3 4 5 6 7 8 9 10 11 12 13 14 15 16 17 18 19 20 21 22 23 24 25 26 27 28 29 30 31 32 33 34 35 36 37 38 39 40 41 42 43 44 45 46 47 48 49 50

101
NZUS93 KARX 070859
HRRWXR

CURRENT HOURLY OBSERVATIONS ACROSS
MUCH OF THE UPPER MISSISSIPPI VALLEY
NATIONAL WEATHER SERVICE LA CROSSE WI
300 AM CST WED DEC 07 2016


...SOUTHEAST MINNESOTA...


CITY           SKY/WX    TMP DP  RH WIND       PRES   REMARKS
ROCHESTER      FLURRIES  14   9  80 W24G31    29.93R WCI  -5
ROCHESTER/MAYO CLOUDY    16  10  79 W15G23    29.95R WCI   1
WINONA         CLOUDY    19  12  73 W10G21    29.97R WCI   8
AUSTIN         PTCLDY    14   9  79 W13G25    29.98R WCI   0
ALBERT LEA     PTCLDY    18  12  79 W14       29.98S WCI   4
DODGE CENTER   FLURRIES  14  10  85 W22G29    29.94R WCI  -4
PRESTON        LGT SNOW  13   8  79 W18G25    29.97R WCI  -4
OWATONNA       FLURRIES  16   9  73 W18G25    29.97R WCI  -1
FARIBAULT      CLOUDY    16  10  79 W17G28    29.96R WCI   0
$$

...ELSEWHERE IN MINNESOTA...


CITY           SKY/WX    TMP DP  RH WIND       PRES   REMARKS
MINNEAPOLIS    FLURRIES  17  10  74 W14G23    29.89R WCI   3
INTNL FALLS    SNOW      21  19  92 SW3       29.51R VSB 1/2
DULUTH         FLURRIES  17  12  80 W23G31    29.60R WCI  -1
RED WING       PTCLDY    18   9  68 W20G26    29.92R WCI   1
REDWOOD FALLS  CLEAR     13   5  70 W20       29.98R WCI  -5
MANKATO        FLURRIES  14   8  77 W21G26    29.98R WCI  -4
WORTHINGTON    PTCLDY     9   5  84 W24       30.04R WCI -12
FAIRMONT       CLEAR     13   7  77 W23G30    30.03R WCI  -6
$$

...SOUTHWEST WISCONSIN...


CITY           SKY/WX    TMP DP  RH WIND       PRES   REMARKS
LA CROSSE      CLOUDY    21  12  68 SW15      29.98R WCI   8
PRAIRIE DU CHI CLOUDY    21  12  68 W13       30.03R WCI   8
BOSCOBEL       CLOUDY    22  13  68 W12G21    30.01R WCI  10
LONE ROCK      NOT AVBL
PLATTEVILLE    CLOUDY    21  16  80 W16G24    30.00R WCI   7
FORT MC COY    MOCLDY    20  14  77 SW8       29.93R WCI  10
MAUSTON-NEW LI MOSUNNY   20  13  72 W14G20    29.91R WCI   7
VIROQUA        CLOUDY    18  13  82 W18G24    29.93S WCI   2
WIS DELLS      CLEAR     21  14  74 W13G22    29.92R WCI   9
$$

...ELSEWHERE IN WISCONSIN...


CITY           SKY/WX    TMP DP  RH WIND       PRES   REMARKS
MILWAUKEE      CLEAR     26  15  63 W16G28    29.94R WCI  14
MADISON        MOCLDY    22  14  71 W10G20    29.94R WCI  11
GREEN BAY      FLURRIES  26  17  68 W17G30    29.83R WCI  13
EAU CLAIRE     CLOUDY    17  11  77 SW14G23   29.84S WCI   3
BLACK RVR FLS  CLOUDY    19  11  71 SW10      29.90S WCI   8
MEDFORD        FLURRIES  15  10  80 W15G23    29.76S WCI   0
WAUSAU         LGT SNOW  18  12  77 W14       29.79R WCI   4
WIS RAPIDS     CLOUDY    20  14  77 SW17G23   29.87R WCI   5
MARSHFIELD     CLOUDY    18  11  74 W16G23    29.80R WCI   3
RICE LAKE      FLURRIES  19  13  77 SW14G22   29.80R WCI   6
$$

...NORTHEAST IOWA...


CITY           SKY/WX    TMP DP  RH WIND       PRES   REMARKS
WATERLOO       CLOUDY    18  10  71 W15G28    30.07R WCI   4
DUBUQUE        FLURRIES  19  12  74 W21G29    30.02R WCI   3
DECORAH        FLURRIES  16  10  79 W10       29.98R WCI   3
MASON CITY     CLEAR     14   8  77 W21G30    30.04R WCI  -4
CHARLES CITY   MOCLDY    16   9  73 W15G25    30.03R WCI   1
OELWEIN        CLOUDY    18  14  86 W18G25    30.04R WCI   2
$$

...ELSEWHERE IN IOWA...


CITY           SKY/WX    TMP DP  RH WIND       PRES   REMARKS
DES MOINES     CLOUDY    22  11  62 NW17      30.15R WCI   8
IOWA CITY      CLEAR     24  14  65 W16G23    30.13R WCI  11
FORT DODGE     PTCLDY    16   7  67 W10G21    30.11R WCI   3
MARSHALLTOWN   PTCLDY    19  12  74 W15G25    30.10R WCI   5
CEDAR RAPIDS   CLEAR     20  15  81 W18       30.09R WCI   5
$$

...NORTHERN ILLINOIS...


CITY           SKY/WX    TMP DP  RH WIND       PRES   REMARKS
CHICAGO-OHARE  MOCLDY    26  18  71 W16G25    30.00S WCI  14
CHICAGO-MIDWAY CLOUDY    28  17  63 W18G25    30.02S WCI  15
MOLINE         CLEAR     27  15  61 W22G29    30.08R WCI  13
ROCKFORD       PTCLDY    24  16  71 W16G23    30.03R WCI  11
PEORIA         PTCLDY    29  17  61 W12       30.10F WCI  19
$$

NOTE: "FAIR" INDICATES FEW OR NO CLOUDS BELOW 12,000 FEET WITH NO
SIGNIFICANT WEATHER AND/OR OBSTRUCTIONS TO VISIBILITY. WIND
SPEEDS ARE IN MILES-PER-HOUR.




USA.gov is the U.S. government's official web portal to all federal, state and local government web resources and services.